Вернуться в каталог

STARLINK-38102

АктивенСвязьVLEO
NORAD 100023·PAYLOAD·🇺🇸 United States

Запущен Jul 14, 2026 с Vandenberg Space Force Base

Loading…

Ближайшие Пролёты (ближайшие 24 часа)

TLE

СвежийSource: Space-Track

Эпоха: Sep 14, 2026, 14:35 UTC

1 A0023U 26160Y   26257.60765691  .00158733  00000-0  93411-3 0  9990
2 A0023  70.0035 211.6127 0003005 270.7548  89.3308 15.77601275 11063

Отслеживайте STARLINK-38102 в реальном времени с AllMySat

Download on the App Store